ImageName,UTC_Time,Latitude,Longitude,H_Ell_m,Northing,Easting,H_Ortho_m
2021022FA_f01r02_20210317T141226Z_M1047490.JPG,14:12:26,41.89154104,-69.9621563,-5.847,4638181.790,420180.922,21.946
2021022FA_f01r02_20210317T141231Z_M1047491.JPG,14:12:31,41.8916057,-69.96212954,-4.689,4638188.944,420183.222,23.104
2021022FA_f01r02_20210317T141236Z_M1047492.JPG,14:12:36,41.89165926,-69.96210885,-2.437,4638194.872,420185.006,25.356
2021022FA_f01r02_20210317T141241Z_M1047493.JPG,14:12:41,41.89171531,-69.96208873,0.480,4638201.076,420186.745,28.273
2021022FA_f01r02_20210317T141246Z_M1047494.JPG,14:12:46,41.89174368,-69.96205908,3.797,4638204.198,420189.240,31.590
2021022FA_f01r02_20210317T141251Z_M1047495.JPG,14:12:51,41.8918177,-69.96209702,9.572,4638212.452,420186.184,37.364
2021022FA_f01r02_20210317T141256Z_M1047496.JPG,14:12:56,41.89188863,-69.96209648,13.592,4638220.327,420186.317,41.385
2021022FA_f01r02_20210317T141301Z_M1047497.JPG,14:13:01,41.89196227,-69.96207611,15.985,4638228.484,420188.099,43.778
2021022FA_f01r02_20210317T141306Z_M1047498.JPG,14:13:06,41.89200147,-69.96204962,18.188,4638232.812,420190.345,45.980
2021022FA_f01r02_20210317T141311Z_M1047499.JPG,14:13:11,41.8920085,-69.96197892,18.555,4638233.526,420196.219,46.347
2021022FA_f01r02_20210317T141316Z_M1047500.JPG,14:13:16,41.89200793,-69.96192962,21.250,4638233.417,420200.308,49.043
2021022FA_f01r02_20210317T141321Z_M1047501.JPG,14:13:21,41.89203633,-69.96189471,25.710,4638236.538,420203.240,53.502
2021022FA_f01r02_20210317T141326Z_M1047502.JPG,14:13:26,41.89203978,-69.96183803,28.647,4638236.868,420207.946,56.439
2021022FA_f01r02_20210317T141331Z_M1047503.JPG,14:13:31,41.89211985,-69.96177124,27.553,4638245.696,420213.587,55.345
2021022FA_f01r02_20210317T141336Z_M1047504.JPG,14:13:36,41.89217044,-69.96172306,27.432,4638251.268,420217.647,55.224
2021022FA_f01r02_20210317T141341Z_M1047505.JPG,14:13:41,41.89221197,-69.96171821,28.278,4638255.875,420218.101,56.070
2021022FA_f01r02_20210317T141346Z_M1047506.JPG,14:13:46,41.89226055,-69.96175644,30.342,4638261.304,420214.990,58.134
2021022FA_f01r02_20210317T141351Z_M1047507.JPG,14:13:51,41.89229414,-69.96179458,33.233,4638265.069,420211.867,61.025
2021022FA_f01r02_20210317T141356Z_M1047508.JPG,14:13:56,41.89229571,-69.96179025,34.177,4638265.239,420212.229,61.969
2021022FA_f01r02_20210317T141401Z_M1047509.JPG,14:14:01,41.89228915,-69.9617916,35.813,4638264.512,420212.108,63.605
2021022FA_f01r02_20210317T141406Z_M1047510.JPG,14:14:06,41.89228397,-69.96181935,38.636,4638263.963,420209.800,66.428
2021022FA_f01r02_20210317T141411Z_M1047511.JPG,14:14:11,41.89228848,-69.96185291,40.633,4638264.495,420207.021,68.425
2021022FA_f01r02_20210317T141416Z_M1047512.JPG,14:14:16,41.89228928,-69.96189058,43.322,4638264.619,420203.897,71.113
2021022FA_f01r02_20210317T141421Z_M1047513.JPG,14:14:21,41.89226912,-69.96191791,46.099,4638262.406,420201.605,73.891
2021022FA_f01r02_20210317T141426Z_M1047514.JPG,14:14:26,41.89226751,-69.9619494,48.090,4638262.256,420198.991,75.882
2021022FA_f01r02_20210317T141431Z_M1047515.JPG,14:14:31,41.89231698,-69.96197615,47.841,4638267.774,420196.833,75.633
2021022FA_f01r02_20210317T141436Z_M1047516.JPG,14:14:36,41.89234291,-69.96196401,45.903,4638270.642,420197.872,73.695
2021022FA_f01r02_20210317T141441Z_M1047517.JPG,14:14:41,41.89235717,-69.9619273,41.934,4638272.191,420200.936,69.725
2021022FA_f01r02_20210317T141446Z_M1047518.JPG,14:14:46,41.8923454,-69.96190128,35.477,4638270.860,420203.080,63.268
2021022FA_f01r02_20210317T141451Z_M1047519.JPG,14:14:51,41.89237172,-69.96185738,30.684,4638273.741,420206.754,58.476
2021022FA_f01r02_20210317T141456Z_M1047520.JPG,14:14:56,41.89238265,-69.96185866,25.948,4638274.956,420206.662,53.739
2021022FA_f01r02_20210317T141501Z_M1047521.JPG,14:15:01,41.89236239,-69.96185587,23.594,4638272.704,420206.868,51.386
2021022FA_f01r02_20210317T141506Z_M1047522.JPG,14:15:06,41.89234243,-69.96186848,22.779,4638270.499,420205.797,50.571
2021022FA_f01r02_20210317T141511Z_M1047523.JPG,14:15:11,41.89231402,-69.96186385,21.413,4638267.341,420206.146,49.205
2021022FA_f01r02_20210317T141516Z_M1047524.JPG,14:15:16,41.89230034,-69.9618832,20.262,4638265.840,420204.523,48.054
2021022FA_f01r02_20210317T141521Z_M1047525.JPG,14:15:21,41.89229179,-69.96191793,20.914,4638264.923,420201.632,48.706
2021022FA_f01r02_20210317T141526Z_M1047526.JPG,14:15:26,41.89227515,-69.96194273,20.366,4638263.098,420199.553,48.158
2021022FA_f01r02_20210317T141531Z_M1047527.JPG,14:15:31,41.8922925,-69.96195819,18.367,4638265.039,420198.293,46.159
2021022FA_f01r02_20210317T141536Z_M1047528.JPG,14:15:36,41.89231065,-69.9620165,18.826,4638267.109,420193.478,46.617
2021022FA_f01r02_20210317T141541Z_M1047529.JPG,14:15:41,41.89231144,-69.96203666,17.398,4638267.215,420191.806,45.190
2021022FA_f01r02_20210317T141546Z_M1047530.JPG,14:15:46,41.89232731,-69.96205622,15.543,4638268.995,420190.203,43.334
2021022FA_f01r02_20210317T141551Z_M1047531.JPG,14:15:51,41.89231601,-69.96208567,16.852,4638267.768,420187.746,44.644
2021022FA_f01r02_20210317T141556Z_M1047532.JPG,14:15:56,41.89231541,-69.96206643,16.538,4638267.684,420189.342,44.330
2021022FA_f01r02_20210317T141601Z_M1047533.JPG,14:16:01,41.89233386,-69.9620107,15.518,4638269.680,420193.988,43.310
2021022FA_f01r02_20210317T141606Z_M1047534.JPG,14:16:06,41.89231925,-69.96198425,14.594,4638268.033,420196.164,42.386
2021022FA_f01r02_20210317T141611Z_M1047535.JPG,14:16:11,41.89232147,-69.96196878,12.932,4638268.266,420197.450,40.724
2021022FA_f01r02_20210317T141616Z_M1047536.JPG,14:16:16,41.89232373,-69.9619629,12.275,4638268.511,420197.941,40.067
2021022FA_f01r02_20210317T141621Z_M1047537.JPG,14:16:21,41.89234583,-69.96197053,10.836,4638270.972,420197.335,38.628
2021022FA_f01r02_20210317T141626Z_M1047538.JPG,14:16:26,41.89236305,-69.96198213,10.200,4638272.894,420196.394,37.991
2021022FA_f01r02_20210317T141631Z_M1047539.JPG,14:16:31,41.89237842,-69.96201348,10.862,4638274.630,420193.813,38.653
2021022FA_f01r02_20210317T141636Z_M1047540.JPG,14:16:36,41.89238627,-69.96205086,12.777,4638275.536,420190.722,40.568
2021022FA_f01r02_20210317T141641Z_M1047541.JPG,14:16:41,41.8923646,-69.96208382,17.825,4638273.161,420187.960,45.616
2021022FA_f01r02_20210317T141646Z_M1047542.JPG,14:16:46,41.89233739,-69.96205129,17.969,4638270.110,420190.625,45.761
2021022FA_f01r02_20210317T141651Z_M1047543.JPG,14:16:51,41.89233771,-69.96203841,17.107,4638270.133,420191.694,44.899
2021022FA_f01r02_20210317T141656Z_M1047544.JPG,14:16:56,41.8923284,-69.9620221,20.051,4638269.085,420193.035,47.843
2021022FA_f01r02_20210317T141701Z_M1047545.JPG,14:17:01,41.89233022,-69.96195386,20.819,4638269.223,420198.699,48.611
2021022FA_f01r02_20210317T141706Z_M1047546.JPG,14:17:06,41.89237476,-69.96187415,16.861,4638274.094,420205.367,44.653
2021022FA_f01r02_20210317T141711Z_M1047547.JPG,14:17:11,41.89245651,-69.96186617,12.528,4638283.163,420206.131,40.320
2021022FA_f01r02_20210317T141716Z_M1047548.JPG,14:17:16,41.89251421,-69.96188955,12.194,4638289.591,420204.263,39.985
2021022FA_f01r02_20210317T141721Z_M1047549.JPG,14:17:21,41.89254451,-69.96187998,11.307,4638292.947,420205.094,39.098
2021022FA_f01r02_20210317T141726Z_M1047550.JPG,14:17:26,41.8925949,-69.96190372,11.051,4638298.564,420203.188,38.843
2021022FA_f01r02_20210317T141731Z_M1047551.JPG,14:17:31,41.89264371,-69.96189377,8.299,4638303.974,420204.074,36.091
2021022FA_f01r02_20210317T141736Z_M1047552.JPG,14:17:36,41.89269949,-69.9619204,8.642,4638310.191,420201.934,36.433
2021022FA_f01r02_20210317T141741Z_M1047553.JPG,14:17:41,41.89276794,-69.96195077,8.431,4638317.820,420199.500,36.222
2021022FA_f01r02_20210317T141746Z_M1047554.JPG,14:17:46,41.89283264,-69.96197537,8.701,4638325.026,420197.540,36.492
2021022FA_f01r02_20210317T141751Z_M1047555.JPG,14:17:51,41.89289533,-69.96200285,10.488,4638332.012,420195.338,38.279
2021022FA_f01r02_20210317T141756Z_M1047556.JPG,14:17:56,41.89294368,-69.96201631,10.207,4638337.393,420194.282,37.998
2021022FA_f01r02_20210317T141801Z_M1047557.JPG,14:18:01,41.89299283,-69.96203268,10.126,4638342.865,420192.985,37.917
2021022FA_f01r02_20210317T141806Z_M1047558.JPG,14:18:06,41.89305603,-69.96204698,8.534,4638349.895,420191.877,36.325
2021022FA_f01r02_20210317T141811Z_M1047559.JPG,14:18:11,41.89310776,-69.96207042,8.624,4638355.661,420189.997,36.415
2021022FA_f01r02_20210317T141816Z_M1047560.JPG,14:18:16,41.89313677,-69.9621031,9.850,4638358.912,420187.322,37.641
2021022FA_f01r02_20210317T141821Z_M1047561.JPG,14:18:21,41.89317451,-69.96212296,12.002,4638363.121,420185.722,39.793
2021022FA_f01r02_20210317T141826Z_M1047562.JPG,14:18:26,41.89321762,-69.96214524,13.765,4638367.928,420183.927,41.555
2021022FA_f01r02_20210317T141831Z_M1047563.JPG,14:18:31,41.8932645,-69.96214001,11.894,4638373.128,420184.419,39.685
2021022FA_f01r02_20210317T141836Z_M1047564.JPG,14:18:36,41.89332119,-69.96214404,10.586,4638379.426,420184.156,38.376
2021022FA_f01r02_20210317T141841Z_M1047565.JPG,14:18:41,41.89334341,-69.96214865,13.180,4638381.897,420183.801,40.971
2021022FA_f01r02_20210317T141846Z_M1047566.JPG,14:18:46,41.89337199,-69.96218793,17.603,4638385.107,420180.578,45.394
2021022FA_f01r02_20210317T141851Z_M1047567.JPG,14:18:51,41.89339397,-69.96222389,20.819,4638387.581,420177.622,48.610
2021022FA_f01r02_20210317T141856Z_M1047568.JPG,14:18:56,41.89343763,-69.96223958,21.708,4638392.443,420176.375,49.498
2021022FA_f01r02_20210317T141901Z_M1047569.JPG,14:19:01,41.8934941,-69.96223876,20.874,4638398.712,420176.513,48.664
2021022FA_f01r02_20210317T141906Z_M1047570.JPG,14:19:06,41.89357367,-69.96224428,19.596,4638407.552,420176.154,47.386
2021022FA_f01r02_20210317T141911Z_M1047571.JPG,14:19:11,41.89364391,-69.96225221,18.704,4638415.358,420175.584,46.495
2021022FA_f01r02_20210317T141916Z_M1047572.JPG,14:19:16,41.89372265,-69.96224926,16.996,4638424.097,420175.927,44.786
2021022FA_f01r02_20210317T141921Z_M1047573.JPG,14:19:21,41.89377992,-69.96225162,16.191,4638430.458,420175.802,43.981
2021022FA_f01r02_20210317T141926Z_M1047574.JPG,14:19:26,41.89385395,-69.96224545,13.353,4638438.672,420176.406,41.142
2021022FA_f01r02_20210317T141931Z_M1047575.JPG,14:19:31,41.89392322,-69.96225603,12.586,4638446.373,420175.615,40.375
2021022FA_f01r02_20210317T141936Z_M1047576.JPG,14:19:36,41.89397666,-69.96227163,13.205,4638452.321,420174.387,40.995
2021022FA_f01r02_20210317T141941Z_M1047577.JPG,14:19:41,41.8940378,-69.96229203,14.456,4638459.128,420172.771,42.246
2021022FA_f01r02_20210317T141946Z_M1047578.JPG,14:19:46,41.89409457,-69.96229645,14.213,4638465.435,420172.475,42.002
2021022FA_f01r02_20210317T141951Z_M1047579.JPG,14:19:51,41.89415137,-69.96230434,14.575,4638471.749,420171.891,42.365
2021022FA_f01r02_20210317T141956Z_M1047580.JPG,14:19:56,41.89418475,-69.96228831,14.398,4638475.440,420173.263,42.188
2021022FA_f01r02_20210317T142001Z_M1047581.JPG,14:20:01,41.8942466,-69.96229427,13.907,4638482.313,420172.845,41.696
2021022FA_f01r02_20210317T142006Z_M1047582.JPG,14:20:06,41.89430184,-69.96229424,13.356,4638488.446,420172.917,41.145
2021022FA_f01r02_20210317T142011Z_M1047583.JPG,14:20:11,41.89432916,-69.96231945,15.890,4638491.503,420170.859,43.679
2021022FA_f01r02_20210317T142016Z_M1047584.JPG,14:20:16,41.89438371,-69.96235706,17.682,4638497.594,420167.807,45.471
2021022FA_f01r02_20210317T142021Z_M1047585.JPG,14:20:21,41.89441354,-69.96235311,17.848,4638500.902,420168.172,45.637
2021022FA_f01r02_20210317T142026Z_M1047586.JPG,14:20:26,41.89445111,-69.96236546,18.712,4638505.085,420167.194,46.501
2021022FA_f01r02_20210317T142031Z_M1047587.JPG,14:20:31,41.89451699,-69.96237493,17.494,4638512.409,420166.491,45.283
2021022FA_f01r02_20210317T142036Z_M1047588.JPG,14:20:36,41.8945969,-69.96238546,15.110,4638521.291,420165.717,42.899
2021022FA_f01r02_20210317T142041Z_M1047589.JPG,14:20:41,41.89468107,-69.96241574,13.408,4638530.664,420163.310,41.197
2021022FA_f01r02_20210317T142046Z_M1047590.JPG,14:20:46,41.89475393,-69.96240824,8.682,4638538.747,420164.023,36.471
2021022FA_f01r02_20210317T142051Z_M1047591.JPG,14:20:51,41.89477058,-69.96243265,12.092,4638540.618,420162.018,39.880
2021022FA_f01r02_20210317T142056Z_M1047592.JPG,14:20:56,41.89479771,-69.96245929,14.298,4638543.655,420159.842,42.086
2021022FA_f01r02_20210317T142101Z_M1047593.JPG,14:21:01,41.89486514,-69.96247026,12.246,4638551.152,420159.016,40.034
2021022FA_f01r02_20210317T142106Z_M1047594.JPG,14:21:06,41.89495056,-69.96252405,12.417,4638560.686,420154.661,40.205
2021022FA_f01r02_20210317T142111Z_M1047595.JPG,14:21:11,41.8949906,-69.96254341,12.620,4638565.150,420153.104,40.408
2021022FA_f01r02_20210317T142116Z_M1047596.JPG,14:21:16,41.89502288,-69.96257299,14.717,4638568.761,420150.691,42.505
2021022FA_f01r02_20210317T142121Z_M1047597.JPG,14:21:21,41.89506941,-69.96258983,14.109,4638573.943,420149.352,41.897
2021022FA_f01r02_20210317T142126Z_M1047598.JPG,14:21:26,41.89508914,-69.96259655,14.253,4638576.140,420148.819,42.041
2021022FA_f01r02_20210317T142131Z_M1047599.JPG,14:21:31,41.89512148,-69.96259639,12.445,4638579.730,420148.873,40.233
2021022FA_f01r02_20210317T142136Z_M1047600.JPG,14:21:36,41.89520401,-69.96262413,10.290,4638588.919,420146.674,38.078
2021022FA_f01r02_20210317T142141Z_M1047601.JPG,14:21:41,41.89527212,-69.96267756,10.423,4638596.531,420142.327,38.211
2021022FA_f01r02_20210317T142146Z_M1047602.JPG,14:21:46,41.89534219,-69.96272681,10.617,4638604.357,420138.329,38.405
2021022FA_f01r02_20210317T142151Z_M1047603.JPG,14:21:51,41.89538009,-69.9627541,11.995,4638608.590,420136.112,39.783
2021022FA_f01r02_20210317T142156Z_M1047604.JPG,14:21:56,41.89541585,-69.96280137,14.733,4638612.605,420132.235,42.521
2021022FA_f01r02_20210317T142201Z_M1047605.JPG,14:22:01,41.89543949,-69.96285345,18.412,4638615.278,420127.944,46.200
2021022FA_f01r02_20210317T142206Z_M1047606.JPG,14:22:06,41.89550368,-69.96288387,18.147,4638622.433,420125.501,45.935
2021022FA_f01r02_20210317T142211Z_M1047607.JPG,14:22:11,41.89556168,-69.96288818,15.976,4638628.877,420125.216,43.764
2021022FA_f01r02_20210317T142216Z_M1047608.JPG,14:22:16,41.89557782,-69.96284534,10.380,4638630.629,420128.790,38.168
2021022FA_f01r02_20210317T142221Z_M1047609.JPG,14:22:21,41.89560452,-69.96286085,10.881,4638633.608,420127.536,38.668
2021022FA_f01r02_20210317T142226Z_M1047610.JPG,14:22:26,41.89565901,-69.96288974,10.481,4638639.685,420125.208,38.268
2021022FA_f01r02_20210317T142231Z_M1047611.JPG,14:22:31,41.89573466,-69.96294527,12.790,4638648.136,420120.695,40.577
2021022FA_f01r02_20210317T142236Z_M1047612.JPG,14:22:36,41.89583011,-69.96299917,12.930,4638658.784,420116.343,40.718
2021022FA_f01r02_20210317T142241Z_M1047613.JPG,14:22:41,41.89589979,-69.96304805,13.551,4638666.566,420112.375,41.338
2021022FA_f01r02_20210317T142246Z_M1047614.JPG,14:22:46,41.89595534,-69.96308758,14.216,4638672.770,420109.165,42.003
2021022FA_f01r02_20210317T142251Z_M1047615.JPG,14:22:51,41.89601336,-69.96312319,13.503,4638679.245,420106.284,41.290
2021022FA_f01r02_20210317T142256Z_M1047616.JPG,14:22:56,41.89608947,-69.96317976,13.452,4638687.748,420101.686,41.239
2021022FA_f01r02_20210317T142301Z_M1047617.JPG,14:23:01,41.89615563,-69.96323196,13.799,4638695.142,420097.438,41.586
2021022FA_f01r02_20210317T142306Z_M1047618.JPG,14:23:06,41.89619933,-69.96326097,14.669,4638700.021,420095.086,42.456
2021022FA_f01r02_20210317T142311Z_M1047619.JPG,14:23:11,41.89624234,-69.96327545,14.454,4638704.810,420093.939,42.241
2021022FA_f01r02_20210317T142316Z_M1047620.JPG,14:23:16,41.89627715,-69.96330452,16.248,4638708.702,420091.570,44.034
2021022FA_f01r02_20210317T142321Z_M1047621.JPG,14:23:21,41.89628913,-69.96328198,14.434,4638710.011,420093.455,42.221
2021022FA_f01r02_20210317T142326Z_M1047622.JPG,14:23:26,41.8963488,-69.96332286,15.240,4638716.674,420090.138,43.027
2021022FA_f01r02_20210317T142331Z_M1047623.JPG,14:23:31,41.89638648,-69.96336679,17.627,4638720.899,420086.541,45.414
2021022FA_f01r02_20210317T142336Z_M1047624.JPG,14:23:36,41.89637966,-69.96336813,18.045,4638720.143,420086.422,45.831
2021022FA_f01r02_20210317T142341Z_M1047625.JPG,14:23:41,41.89640914,-69.96335249,15.373,4638723.401,420087.756,43.160
2021022FA_f01r02_20210317T142346Z_M1047626.JPG,14:23:46,41.89645114,-69.96338452,18.315,4638728.094,420085.151,46.102
2021022FA_f01r02_20210317T142351Z_M1047627.JPG,14:23:51,41.89650101,-69.96341005,20.035,4638733.655,420083.096,47.821
2021022FA_f01r02_20210317T142356Z_M1047628.JPG,14:23:56,41.89654248,-69.96346558,23.560,4638738.311,420078.541,51.346
2021022FA_f01r02_20210317T142401Z_M1047629.JPG,14:24:01,41.89664177,-69.96352251,25.466,4638749.388,420073.942,53.252
2021022FA_f01r02_20210317T142406Z_M1047630.JPG,14:24:06,41.89672203,-69.96359909,27.664,4638758.371,420067.690,55.450
2021022FA_f01r02_20210317T142411Z_M1047631.JPG,14:24:11,41.89679061,-69.96364531,28.976,4638766.028,420063.941,56.763
2021022FA_f01r02_20210317T142416Z_M1047632.JPG,14:24:16,41.89683085,-69.96364058,28.449,4638770.492,420064.384,56.235
2021022FA_f01r02_20210317T142421Z_M1047633.JPG,14:24:21,41.89688296,-69.96363403,28.160,4638776.271,420064.992,55.945
2021022FA_f01r02_20210317T142426Z_M1047634.JPG,14:24:26,41.89693433,-69.96363053,28.967,4638781.972,420065.346,56.753
2021022FA_f01r02_20210317T142431Z_M1047635.JPG,14:24:31,41.89699458,-69.96363348,29.263,4638788.664,420065.177,57.049
2021022FA_f01r02_20210317T142436Z_M1047636.JPG,14:24:36,41.89705819,-69.96364205,30.218,4638795.734,420064.545,58.004
2021022FA_f01r02_20210317T142441Z_M1047637.JPG,14:24:41,41.89710176,-69.96365653,30.013,4638800.585,420063.399,57.798
2021022FA_f01r02_20210317T142446Z_M1047638.JPG,14:24:46,41.89713239,-69.96370878,30.562,4638804.035,420059.102,58.347
2021022FA_f01r02_20210317T142451Z_M1047639.JPG,14:24:51,41.89711528,-69.96369456,27.913,4638802.122,420060.261,55.699
2021022FA_f01r02_20210317T142456Z_M1047640.JPG,14:24:56,41.89711887,-69.96374387,27.666,4638802.566,420056.175,55.452
2021022FA_f01r02_20210317T142501Z_M1047641.JPG,14:25:01,41.89709461,-69.96380391,28.184,4638799.929,420051.164,55.970
2021022FA_f01r02_20210317T142506Z_M1047642.JPG,14:25:06,41.89709994,-69.9638304,25.668,4638800.545,420048.973,53.454
2021022FA_f01r02_20210317T142511Z_M1047643.JPG,14:25:11,41.89705453,-69.9638391,25.673,4638795.512,420048.195,53.458
2021022FA_f01r02_20210317T142516Z_M1047644.JPG,14:25:16,41.89701227,-69.96382757,24.386,4638790.809,420049.099,52.171
2021022FA_f01r02_20210317T142521Z_M1047645.JPG,14:25:21,41.89695023,-69.9637956,24.906,4638783.891,420051.673,52.692
2021022FA_f01r02_20210317T142526Z_M1047646.JPG,14:25:26,41.89690724,-69.96374455,24.265,4638779.070,420055.854,52.051
2021022FA_f01r02_20210317T142531Z_M1047647.JPG,14:25:31,41.89687732,-69.96372893,22.229,4638775.734,420057.113,50.014
2021022FA_f01r02_20210317T142536Z_M1047648.JPG,14:25:36,41.89683024,-69.96373541,22.741,4638770.512,420056.517,50.527
2021022FA_f01r02_20210317T142541Z_M1047649.JPG,14:25:41,41.89679949,-69.96376576,23.053,4638767.127,420053.961,50.839
2021022FA_f01r02_20210317T142546Z_M1047650.JPG,14:25:46,41.896754,-69.9637491,21.338,4638762.060,420055.286,49.124
2021022FA_f01r02_20210317T142551Z_M1047651.JPG,14:25:51,41.89671223,-69.96373286,19.776,4638757.407,420056.581,47.563
2021022FA_f01r02_20210317T142556Z_M1047652.JPG,14:25:56,41.89666435,-69.96373185,19.912,4638752.090,420056.605,47.698
2021022FA_f01r02_20210317T142601Z_M1047653.JPG,14:26:01,41.89660217,-69.9637301,21.863,4638745.185,420056.673,49.649
2021022FA_f01r02_20210317T142606Z_M1047654.JPG,14:26:06,41.89657797,-69.96369634,18.008,4638742.467,420059.443,45.795
2021022FA_f01r02_20210317T142611Z_M1047655.JPG,14:26:11,41.89654117,-69.96368276,16.639,4638738.368,420060.524,44.425
2021022FA_f01r02_20210317T142616Z_M1047656.JPG,14:26:16,41.89645836,-69.9636437,18.513,4638729.138,420063.660,46.299
2021022FA_f01r02_20210317T142621Z_M1047657.JPG,14:26:21,41.89640111,-69.96364246,19.635,4638722.780,420063.692,47.421
2021022FA_f01r02_20210317T142626Z_M1047658.JPG,14:26:26,41.89635667,-69.96364518,20.253,4638717.848,420063.411,48.040
2021022FA_f01r02_20210317T142631Z_M1047659.JPG,14:26:31,41.89633707,-69.9636395,17.731,4638715.667,420063.858,45.517
2021022FA_f01r02_20210317T142636Z_M1047660.JPG,14:26:36,41.8962978,-69.96356414,12.714,4638711.237,420070.060,40.501
2021022FA_f01r02_20210317T142641Z_M1047661.JPG,14:26:41,41.89625398,-69.96354613,12.116,4638706.355,420071.499,39.902
2021022FA_f01r02_20210317T142646Z_M1047662.JPG,14:26:46,41.89619665,-69.96355607,15.308,4638699.999,420070.603,43.095
2021022FA_f01r02_20210317T142651Z_M1047663.JPG,14:26:51,41.89616811,-69.96358046,15.586,4638696.853,420068.544,43.373
2021022FA_f01r02_20210317T142656Z_M1047664.JPG,14:26:56,41.8961201,-69.96357746,16.613,4638691.519,420068.733,44.400
2021022FA_f01r02_20210317T142701Z_M1047665.JPG,14:27:01,41.89605933,-69.96355386,18.238,4638684.750,420070.615,46.025
2021022FA_f01r02_20210317T142706Z_M1047666.JPG,14:27:06,41.89599379,-69.9635489,21.178,4638677.469,420070.945,48.966
2021022FA_f01r02_20210317T142711Z_M1047667.JPG,14:27:11,41.89594729,-69.96352054,20.419,4638672.279,420073.240,48.206
2021022FA_f01r02_20210317T142716Z_M1047668.JPG,14:27:16,41.8959151,-69.96351505,19.689,4638668.700,420073.655,47.476
2021022FA_f01r02_20210317T142721Z_M1047669.JPG,14:27:21,41.89585957,-69.96346984,19.809,4638662.493,420077.336,47.596
2021022FA_f01r02_20210317T142726Z_M1047670.JPG,14:27:26,41.8958029,-69.96345364,21.147,4638656.186,420078.609,48.934
2021022FA_f01r02_20210317T142731Z_M1047671.JPG,14:27:31,41.89574864,-69.96344542,22.348,4638650.154,420079.223,50.135
2021022FA_f01r02_20210317T142736Z_M1047672.JPG,14:27:36,41.8956947,-69.96342318,22.803,4638644.144,420081.001,50.591
2021022FA_f01r02_20210317T142741Z_M1047673.JPG,14:27:41,41.89565396,-69.9633586,20.551,4638639.561,420086.307,48.338
2021022FA_f01r02_20210317T142746Z_M1047674.JPG,14:27:46,41.89560095,-69.9632992,19.676,4638633.620,420091.169,47.464
2021022FA_f01r02_20210317T142751Z_M1047675.JPG,14:27:51,41.89554255,-69.96323935,19.280,4638627.080,420096.061,47.068
2021022FA_f01r02_20210317T142756Z_M1047676.JPG,14:27:56,41.89548552,-69.96320136,18.781,4638620.713,420099.141,46.569
2021022FA_f01r02_20210317T142801Z_M1047677.JPG,14:28:01,41.89544048,-69.96318224,18.470,4638615.694,420100.671,46.258
2021022FA_f01r02_20210317T142806Z_M1047678.JPG,14:28:06,41.89539088,-69.96314287,18.018,4638610.150,420103.875,45.805
2021022FA_f01r02_20210317T142811Z_M1047679.JPG,14:28:11,41.89534265,-69.96311018,17.648,4638604.765,420106.527,45.436
2021022FA_f01r02_20210317T142816Z_M1047680.JPG,14:28:16,41.8952978,-69.96308798,16.807,4638599.765,420108.313,44.595
2021022FA_f01r02_20210317T142821Z_M1047681.JPG,14:28:21,41.8952193,-69.96295684,13.660,4638590.927,420119.093,41.448
2021022FA_f01r02_20210317T142826Z_M1047682.JPG,14:28:26,41.89515883,-69.96288137,11.402,4638584.143,420125.279,39.190
2021022FA_f01r02_20210317T142831Z_M1047683.JPG,14:28:31,41.89507173,-69.96282356,13.281,4638574.418,420129.966,41.069
2021022FA_f01r02_20210317T142836Z_M1047684.JPG,14:28:36,41.89499886,-69.96280311,15.580,4638566.309,420131.571,43.369
2021022FA_f01r02_20210317T142841Z_M1047685.JPG,14:28:41,41.89493409,-69.96282946,19.994,4638559.142,420129.305,47.782
2021022FA_f01r02_20210317T142846Z_M1047686.JPG,14:28:46,41.8949013,-69.96283175,19.634,4638555.503,420129.074,47.422
2021022FA_f01r02_20210317T142851Z_M1047687.JPG,14:28:51,41.89483601,-69.96281568,21.219,4638548.239,420130.326,49.007
2021022FA_f01r02_20210317T142856Z_M1047688.JPG,14:28:56,41.89479469,-69.96280731,21.481,4638543.644,420130.969,49.269
2021022FA_f01r02_20210317T142901Z_M1047689.JPG,14:29:01,41.89473253,-69.96276204,20.389,4638536.700,420134.646,48.178
2021022FA_f01r02_20210317T142906Z_M1047690.JPG,14:29:06,41.89467701,-69.96274149,20.845,4638530.517,420136.282,48.633